THORAD DELTA 1 DEB, 8181

Orbit data source: Space-Track

THORAD DELTA 1 DEB, 8181 is space debris in SSO originally from a launch on Fri, 15 Nov 1974 UTC launched from the Air Force Western Test Range (AFWTR). Debris objects in space refer to the collection of defunct objects orbiting the Earth. Examples of debris include non-operational satellites, rocket bodies, and fragments generated from explosions, collisions, or faulty payload assembly.

Loading next visibility...
Identifier
8181, 1974-089AX
Orbit
SSO
Country
Flag of USUS
Related business
Manufacturer
Unknown
Mission
Spacecraft
Bus & Motor
Unknown
Mass
Unknown
Launch date (UTC)
1974-11-15 (52 years ago)
Launch vehicle
Unknown
Launch site
Air Force Western Test Range (AFWTR)
Object type
Payload
Rocket body
Debris
Shape & HBR
Unknown shape, 0.3 m
Radar Cross Section
Medium (>0.1 m² and <1 m²)

Expand to show TLE details & history
Last TLE update: 4 hours ago

TLE from 4 hours ago
0 THORAD DELTA 1 DEB
1  8181U 74089AX  26178.18811641 -.00000005  00000-0  28364-3 0  9992
2  8181 101.6925 284.3341 0066501 343.3229 131.7580 12.40349108335618
Epoch: 2026-06-27T04:30Z
TLE epoch observation values (Epoch: 2026-06-27T04:30:53.257Z)
Latitude
62.06719°
Longitude
144.16318°
Altitude
1,550.691 km
Speed
7.081 km/s
True Right ascension
08h 28m 45s
True Declination
61° 56' 20"
Sunlit
Object was in daylight at epoch
Visualization orbit readout
Latitude
Unknown
Longitude
Unknown
Altitude
Unknown
Speed
Unknown
Apparent Right ascension
Unknown
Apparent Declination
Unknown
Sunlit
N/A
Visualization observer readout
Local Sidereal Time
19:54:37
Azimuth
Unknown
Elevation
Unknown
Doppler factor
Unknown
Orbital elements
Apogee altitude
1,555.088 km
Perigee altitude
1,450.271 km
Semi-major axis
7,880.817 km
Eccentricity
0.00665
Inclination
101.6925°
RAAN
284.3341°
Arg. of periapsis
343.3229°
True anomaly
132.32332°
Mean anomaly
131.758°
Eccentric anomaly
132.04097°
Mean motion
3.10232 °/min
Orbital period
116.04 mins
BSTAR
0.00028364
Loading maneuver chart data...
Computing Atmospheric mass density...

Documentation

Showing up to 5 results
|